Bow Valley, Alberta

1:09 PM MDT on August 21, 2017 (GMT -0600)
Bow Valley

Weather History for CWXA - November, 2012

Change the Weather History Date:

Friday, November 9, 2012

  Actual Average Record
Temperature  
Mean Temperature 9 °F -  
Max Temperature 12 °F - - ()
Min Temperature 6 °F - - ()
Degree Days  
Heating Degree Days 56    
Moisture  
Dew Point 5 °F    
Average Humidity 83    
Maximum Humidity 89    
Minimum Humidity 67    
Precipitation  
Precipitation 0.04 in - - ()
Sea Level Pressure  
Sea Level Pressure 30.24 in    
Wind  
Wind Speed 3 mph ()    
Max Wind Speed 6 mph    
Max Gust Speed -    
T = Trace of Precipitation, MM = Missing Value Source: Averaged Metar Reports

Daily Weather History Graph

Daily Weather History Graph

Search for Another Location

Airport or City:

Trip Planner

Search our weather history database for the weather conditions in past years. The results will help you decide how hot, cold, wet, or windy it might be!

Date:

Astronomy

Nov. 09, 2012 Rise Set
Actual Time 7:47 AM MST 5:00 PM MST
Civil Twilight 7:11 AM MST 5:35 PM MST
Nautical Twilight 6:31 AM MST 6:15 PM MST
Astronomical Twilight 5:53 AM MST 6:54 PM MST
Moon 2:21 AM MST (11/9) 2:41 PM MST (11/9)
Length of Visible Light 10h 24m
Length of Day
9h 12m
Waning Crescent, 22% of the Moon is Illuminated
Nov 9
Waning Crescent
Nov 13
New
Nov 20
First Quarter
Nov 28
Full
Dec 6
Last Quarter

Hourly Weather History & Observations

Time (MST) Temp. Windchill Dew Point Humidity Pressure Visibility Wind Dir Wind Speed Gust Speed Precip Events Conditions
12:00 AM 9.9 °F 1.6 °F 7.0 °F 88% 30.27 in - NE 4.6 mph - N/A   Unknown
1:00 AM 9.1 °F 0.8 °F 6.3 °F 88% 30.28 in - NE 4.6 mph - N/A   Unknown
3:00 AM 9.0 °F - 6.3 °F 89% 30.27 in - ENE 1.2 mph - 0.01 in   Unknown
4:00 AM 8.6 °F - 5.9 °F 89% 30.26 in - ESE 2.3 mph - 0.02 in   Unknown
5:00 AM 9 °F - 6 °F 80% 30.25 in - East 3.5 mph - -  
5:00 AM 8.6 °F 2.0 °F 5.7 °F 88% 30.25 in - East 3.5 mph - 0.01 in   Unknown
6:00 AM 8.4 °F 1.8 °F 5.7 °F 89% 30.25 in - East 3.5 mph - 0.02 in   Unknown
7:00 AM 8.2 °F -0.3 °F 5.4 °F 88% 30.25 in - East 4.6 mph - 0.01 in   Unknown
8:00 AM 8.2 °F - 5.5 °F 89% 30.26 in - East 2.3 mph - N/A   Unknown
9:00 AM 7.7 °F 1.0 °F 4.5 °F 87% 30.26 in - East 3.5 mph - N/A   Unknown
10:00 AM 8.8 °F 2.2 °F 4.3 °F 82% 30.27 in - East 3.5 mph - N/A   Unknown
11:00 AM 10 °F - 4 °F 67% 30.26 in - East 3.5 mph - -  
11:00 AM 9.7 °F 3.2 °F 4.1 °F 78% 30.26 in - East 3.5 mph - N/A   Unknown
12:00 PM 10.6 °F 4.3 °F 4.6 °F 77% 30.25 in - ENE 3.5 mph - N/A   Unknown
1:00 PM 12.2 °F 6.1 °F 3.2 °F 67% 30.23 in - ENE 3.5 mph - N/A   Unknown
2:00 PM 12.0 °F 4.1 °F 4.1 °F 71% 30.21 in - ENE 4.6 mph - N/A   Unknown
3:00 PM 11.1 °F 4.9 °F 5.4 °F 78% 30.21 in - ENE 3.5 mph - N/A   Unknown
4:00 PM 11.5 °F 5.3 °F 7.2 °F 83% 30.20 in - ENE 3.5 mph - N/A   Unknown
5:00 PM 10 °F - 6 °F 78% 30.22 in - NE 3.5 mph - -  
5:00 PM 9.5 °F 3.0 °F 6.3 °F 87% 30.22 in - NE 3.5 mph - N/A   Unknown
6:00 PM 8.4 °F 1.8 °F 5.2 °F 87% 30.23 in - NNE 3.5 mph - N/A   Unknown
7:00 PM 7.9 °F 1.2 °F 4.5 °F 86% 30.24 in - NNE 3.5 mph - N/A   Unknown
8:00 PM 7.7 °F - 4.5 °F 87% 30.23 in - NE 2.3 mph - N/A   Unknown
9:00 PM 7.7 °F - 4.1 °F 85% 30.22 in - NNE 1.2 mph - N/A   Unknown
10:00 PM 7.0 °F -3.3 °F 3.0 °F 84% 30.23 in - ENE 5.8 mph - N/A   Unknown
11:00 PM 6 °F - 2 °F 76% 30.22 in - ENE 2.3 mph - -  
11:00 PM 6.4 °F - 2.1 °F 82% 30.22 in - ENE 2.3 mph - N/A   Unknown